Location: Binningen
(47.7924°N, 8.7261°E)
Time: 06:41:12
(UTC+00:00)

Cosmos 1733 Rocket - Pass Details

Date: 05 October 2021
Orbit: 604 x 627 km, 82.5° (Epoch: 25 October)

Event Time Altitude Azimuth Distance (km) Brightness Sun altitude
Rises 04:13:23 0° 340° (NNW) 2,903 6.4 -13.6°
Reaches altitude 10° 04:15:53 10° 327° (NNW) 1,996 5.4 -13.2°
Maximum altitude 04:19:32 26° 272° (W) 1,236 4.0 -12.6°
Drops below altitude 10° 04:23:12 10° 216° (SW) 1,993 5.3 -12.0°
Sets 04:25:41 0° 203° (SSW) 2,897 6.2 -11.6°
